User: anonymous   Login
Location: Unspecified
(0.0000°N, 0.0000°E)
Time: 14:41:48
(UTC+00:00)
Language:

Hubble Space Telescope - Orbit

View from above orbital plane
View from above orbital plane
View from above satellite
View from above satellite

Ground track
Ground track

The orbit data is extracted from the following two-line orbital elements,

1 20580U 90037B   16241.16789032  .00000663  00000-0  30228-4 0  9998
2 20580  28.4696 143.3418 0002619 260.9887 253.0321 15.08466002245991
Epoch (UTC): 28 August 2016 04:01:45
Eccentricity: 0.0002619
inclination: 28.4696°
perigee height: 539 km
apogee height: 543 km
right ascension of ascending node: 143.3418°
argument of perigee: 260.9887°
revolutions per day: 15.08466002
mean anomaly at epoch: 253.0321°
orbit number at epoch: 24599

The dashed part of the orbit path shows where the satellite is in the earth's shadow,  

DLR